Regional Weather Roundup
Issued by NWS Little Rock, AR

Home | Current Version | Previous Version | Text Only | Print | Product List | Glossary Off
Versions: 1 2 3 4 5 6 7 8 9 10 11 12 13 14 15 16 17 18 19 20 21 22 23 24 25 26 27 28 29 30 31 32

000
ASUS44 KLZK 232205
RWRLZK

WEATHER ROUNDUP FOR ARKANSAS
NATIONAL WEATHER SERVICE LITTLE ROCK AR
400 PM CST THU NOV 23 2017

NOTE: "FAIR" INDICATES FEW OR NO CLOUDS BELOW 12,000 FEET WITH NO
SIGNIFICANT WEATHER AND/OR OBSTRUCTIONS TO VISIBILITY.

ARZ001-003-010-029-232300-
NORTHWEST ARKANSAS

CITY           SKY/WX    TMP DP  RH WIND       PRES   REMARKS
FAYETTEVILLE   SUNNY     62  30  29 SW3       30.03R
FORT SMITH     SUNNY     63  27  25 W5        30.03F
HARRISON       CLEAR     63  28  26 W8        30.01S
BENTONVILLE    SUNNY     61  30  31 SW8       30.04S
ROGERS         SUNNY     61  30  31 W8        30.03S
SILOAM SPGS    SUNNY     62  30  29 SW7       30.03S
HIGHFILL       SUNNY     62  29  28 SW7       30.02S
SPRINGDALE     SUNNY     63  28  27 W7        30.03F
$$

ARZ004-005-016-232300-
NORTH CENTRAL ARKANSAS

CITY           SKY/WX    TMP DP  RH WIND       PRES   REMARKS
BATESVILLE     CLEAR     58  26  29 S7        30.04S
FLIPPIN        CLEAR     64  29  26 N3        30.00S
MTN HOME       CLEAR     62  26  25 CALM      29.99
$$

ARZ040-041-232300-
WEST CENTRAL ARKANSAS

CITY           SKY/WX    TMP DP  RH WIND       PRES   REMARKS
MENA           SUNNY     64  30  27 W5        30.05R
MOUNT IDA      SUNNY     65  29  25 CALM      30.03R
$$

ARZ009-017-025-026-028-232300-
NORTHEAST ARKANSAS

CITY           SKY/WX    TMP DP  RH WIND       PRES   REMARKS
JONESBORO      CLEAR     53  29  39 S7        30.04F
NEWPORT        CLEAR     55  26  32 S10       30.05F
WALNUT RIDGE     N/A     52  27  38 S10       30.04S
BLYTHEVILLE    CLEAR     51  27  39 SW7       30.05F
$$

ARZ022-023-033-042-044-232300-
CENTRAL ARKANSAS

CITY           SKY/WX    TMP DP  RH WIND       PRES   REMARKS
LITTLE ROCK    PTCLDY    59  23  25 W5        30.06F
N LITTLE ROCK    N/A     59  27  30 S3        30.09F
JACKSONVILLE   CLEAR     59  25  27 S7        30.04F
SEARCY         CLEAR     57  27  31 S7        30.06S
HOT SPRINGS    SUNNY     61  25  25 CALM      30.06S
RUSSELLVILLE   SUNNY     61  28  28 VRB3      30.03F
CLINTON        FAIR      59  28  31 S5        30.04R HAZE
$$

ARZ036-232300-
EAST ARKANSAS

CITY           SKY/WX    TMP DP  RH WIND       PRES   REMARKS
WEST MEMPHIS   CLEAR     53  24  32 CALM      30.05F
$$

ARZ050-053-066-070-073-232300-
SOUTHWEST ARKANSAS

CITY           SKY/WX    TMP DP  RH WIND       PRES   REMARKS
ARKADELPHIA    FAIR      60  26  27 MISG      30.08S
CAMDEN         SUNNY     61  21  21 CALM      30.06F
TEXARKANA      SUNNY     58  26  29 SW5       30.07S
EL DORADO      SUNNY     59  27  29 CALM      30.08S
DE QUEEN       SUNNY     61  30  31 S3        30.05S
$$

ARZ056-057-069-232300-
SOUTHEAST ARKANSAS

CITY           SKY/WX    TMP DP  RH WIND       PRES   REMARKS
PINE BLUFF     CLEAR     58  23  26 NW3       30.07S
STUTTGART      CLEAR     55  26  32 VRB3      30.07F
MONTICELLO     SUNNY     57  24  28 W3        30.07S

$$






USA.gov is the U.S. government's official web portal to all federal, state and local government web resources and services.